Time,TemperatureF,DewpointF,PressureIn,WindDirection,WindDirectionDegrees,WindSpeedMPH,WindSpeedGustMPH,Humidity,HourlyPrecipIn,Conditions,Clouds,dailyrainin,SoftwareType,DateUTC
2013-10-17 00:24:00,70.0,69.0,29.97,WSW,246,1.0,2.0,95,-99.99,,,-99.99,,2013-10-17 04:24:00,
2013-10-17 00:34:00,70.0,69.0,29.97,WSW,246,1.0,2.0,95,-99.99,,,-99.99,,2013-10-17 04:34:00,
2013-10-17 00:43:00,70.0,69.0,29.97,WSW,246,1.0,2.0,95,-99.99,,,-99.99,,2013-10-17 04:43:00,
2013-10-17 01:23:00,70.0,68.0,29.96,West,277,1.0,1.0,96,-99.99,,,-99.99,,2013-10-17 05:23:00,
2013-10-17 01:42:00,69.0,68.0,29.95,SW,227,1.0,1.0,96,-99.99,,,-99.99,,2013-10-17 05:42:00,
2013-10-17 02:22:00,68.0,67.0,29.95,NW,319,1.0,2.0,97,-99.99,,,-99.99,,2013-10-17 06:22:00,
2013-10-17 02:42:00,68.0,67.0,29.95,WNW,286,2.0,3.0,97,-99.99,,,-99.99,,2013-10-17 06:42:00,
2013-10-17 03:22:00,67.0,66.0,29.94,West,274,1.0,1.0,97,-99.99,,,-99.99,,2013-10-17 07:22:00,
2013-10-17 03:43:00,66.0,65.0,29.93,NW,310,1.0,1.0,97,-99.99,,,-99.99,,2013-10-17 07:43:00,
2013-10-17 04:22:00,66.0,65.0,29.92,NW,308,1.0,1.0,98,-99.99,,,-99.99,,2013-10-17 08:22:00,
2013-10-17 04:42:00,65.0,65.0,29.92,NNE,30,2.0,5.0,98,-99.99,,,-99.99,,2013-10-17 08:42:00,
2013-10-17 05:22:00,66.0,66.0,29.92,West,262,1.0,3.0,98,-99.99,,,-99.99,,2013-10-17 09:22:00,
2013-10-17 05:43:00,67.0,66.0,29.93,NNE,29,3.0,5.0,98,-99.99,,,-99.99,,2013-10-17 09:43:00,
2013-10-17 06:23:00,67.0,67.0,29.93,NNE,31,3.0,4.0,98,-99.99,,,-99.99,,2013-10-17 10:23:00,
2013-10-17 06:42:00,67.0,67.0,29.94,NNE,23,2.0,4.0,98,-99.99,,,-99.99,,2013-10-17 10:42:00,
2013-10-17 07:22:00,65.0,64.0,29.95,NE,55,1.0,2.0,98,-99.99,,,-99.99,,2013-10-17 11:22:00,
2013-10-17 07:42:00,64.0,64.0,29.95,NE,34,1.0,2.0,98,-99.99,,,-99.99,,2013-10-17 11:42:00,
2013-10-17 08:12:00,64.0,63.0,29.96,WSW,249,1.0,2.0,98,-99.99,,,-99.99,,2013-10-17 12:12:00,
2013-10-17 08:22:00,64.0,64.0,29.96,SSE,154,1.0,2.0,98,-99.99,,,-99.99,,2013-10-17 12:22:00,
2013-10-17 08:42:00,68.0,68.0,29.97,SSE,155,1.0,1.0,98,-99.99,,,-99.99,,2013-10-17 12:42:00,
2013-10-17 09:22:00,72.0,70.0,29.98,NE,56,2.0,4.0,94,-99.99,,,-99.99,,2013-10-17 13:22:00,
2013-10-17 09:30:00,78.0,71.0,29.98,ENE,69,3.0,6.0,79,-99.99,,,-99.99,,2013-10-17 13:30:00,
2013-10-17 09:42:00,76.0,70.0,29.98,ENE,67,3.0,6.0,83,-99.99,,,-99.99,,2013-10-17 13:42:00,
2013-10-17 10:11:00,78.0,71.0,29.98,ENE,69,3.0,6.0,79,-99.99,,,-99.99,,2013-10-17 14:11:00,
2013-10-17 10:22:00,78.0,71.0,29.98,ENE,69,3.0,6.0,79,-99.99,,,-99.99,,2013-10-17 14:22:00,
2013-10-17 14:42:00,87.0,71.0,29.94,SE,130,3.0,6.0,57,-99.99,,,-99.99,,2013-10-17 18:42:00,
2013-10-17 15:22:00,85.0,71.0,29.93,WSW,256,5.0,8.0,61,-99.99,,,-99.99,,2013-10-17 19:22:00,
2013-10-17 15:42:00,86.0,72.0,29.92,WNW,282,5.0,8.0,62,-99.99,,,-99.99,,2013-10-17 19:42:00,
2013-10-17 16:22:00,83.0,72.0,29.92,West,274,5.0,9.0,67,-99.99,,,-99.99,,2013-10-17 20:22:00,
2013-10-17 16:42:00,84.0,72.0,29.91,WNW,285,5.0,8.0,66,-99.99,,,-99.99,,2013-10-17 20:42:00,
2013-10-17 17:22:00,85.0,72.0,29.91,SSE,147,4.0,7.0,64,-99.99,,,-99.99,,2013-10-17 21:22:00,
2013-10-17 17:44:00,85.0,72.0,29.91,ENE,72,4.0,6.0,64,-99.99,,,-99.99,,2013-10-17 21:44:00,
2013-10-17 18:24:00,84.0,71.0,29.91,WNW,284,2.0,4.0,64,-99.99,,,-99.99,,2013-10-17 22:24:00,
2013-10-17 18:43:00,82.0,71.0,29.92,ESE,121,5.0,7.0,68,-99.99,,,-99.99,,2013-10-17 22:43:00,
2013-10-17 19:22:00,82.0,71.0,29.91,SW,236,2.0,3.0,69,-99.99,,,-99.99,,2013-10-17 23:22:00,
2013-10-17 19:43:00,80.0,71.0,29.92,West,273,4.0,8.0,72,-99.99,,,-99.99,,2013-10-17 23:43:00,
2013-10-17 20:22:00,79.0,69.0,29.92,WNW,290,3.0,6.0,72,-99.99,,,-99.99,,2013-10-18 00:22:00,
2013-10-17 20:42:00,77.0,69.0,29.93,WNW,289,2.0,4.0,76,-99.99,,,-99.99,,2013-10-18 00:42:00,
2013-10-17 21:22:00,75.0,70.0,29.93,NW,310,2.0,3.0,84,-99.99,,,-99.99,,2013-10-18 01:22:00,
2013-10-17 21:42:00,74.0,70.0,29.93,WNW,282,1.0,2.0,87,-99.99,,,-99.99,,2013-10-18 01:42:00,
2013-10-17 22:22:00,72.0,69.0,29.94,NE,44,2.0,3.0,91,-99.99,,,-99.99,,2013-10-18 02:22:00,
2013-10-17 22:42:00,72.0,70.0,29.95,WSW,251,1.0,2.0,93,-99.99,,,-99.99,,2013-10-18 02:42:00,
2013-10-17 23:22:00,70.0,69.0,29.96,West,263,1.0,1.0,94,-99.99,,,-99.99,,2013-10-18 03:22:00,
2013-10-17 23:44:00,71.0,70.0,29.96,SE,142,3.0,6.0,96,-99.99,,,-99.99,,2013-10-18 03:44:00,